Weather History for KEDE - May, 2013

Change the Weather History Date:

Sunday, May 5, 2013

  Actual Average Record
Temperature  
Mean Temperature 55 °F -  
Max Temperature 64 °F 75 °F 93 °F (1938)
Min Temperature 46 °F 53 °F 40 °F (1957)
Degree Days  
Heating Degree Days 10    
Growing Degree Days 5 (Base 50)    
Moisture  
Dew Point 54 °F    
Average Humidity 95    
Maximum Humidity 100    
Minimum Humidity 77    
Precipitation  
Precipitation 0.03 in - - ()
Sea Level Pressure  
Sea Level Pressure 30.09 in    
Wind  
Wind Speed 8 mph (NE)    
Max Wind Speed 15 mph    
Max Gust Speed 22 mph    
Visibility 6 miles    
Events Rain    
Averages and records for this station are not official NWS values.
T = Trace of Precipitation, MM = Missing Value Source: NWS Daily Summary

Daily Weather History Graph

Daily Weather History Graph

Search for Another Location

Airport or City:

Trip Planner

Search our weather history database for the weather conditions in past years. The results will help you decide how hot, cold, wet, or windy it might be!

Date:

Astronomy

May. 05, 2013 Rise Set
Actual Time 6:09 AM EDT 7:57 PM EDT
Civil Twilight 5:41 AM EDT 8:25 PM EDT
Nautical Twilight 5:07 AM EDT 8:58 PM EDT
Astronomical Twilight 4:32 AM EDT 9:34 PM EDT
Moon 3:30 AM EDT (5/5) 4:01 PM EDT (5/5)
Length of Visible Light 14h 43m
Length of Day
13h 47m
Waning Crescent, 18% of the Moon is Illuminated
May 5
Waning Crescent
May 9
New
May 18
First Quarter
May 25
Full
May 31
Last Quarter

Hourly Weather History & Observations

Time (EDT) Temp. Dew Point Humidity Pressure Visibility Wind Dir Wind Speed Gust Speed Precip Events Conditions
12:15 AM 49.1 °F 49.1 °F 100% 30.13 in 7.0 mi NE 6.9 mph - N/A   Clear
12:35 AM 49.1 °F 49.1 °F 100% 30.12 in 7.0 mi NNE 5.8 mph - N/A   Clear
12:55 AM 48.7 °F 48.7 °F 100% 30.12 in 7.0 mi NE 4.6 mph - N/A   Clear
1:15 AM 48.4 °F 48.4 °F 100% 30.12 in 7.0 mi NE 3.5 mph - N/A   Clear
1:35 AM 48.2 °F 48.2 °F 100% 30.11 in 7.0 mi NNE 3.5 mph - N/A   Clear
1:55 AM 47.7 °F 47.7 °F 100% 30.10 in 5.0 mi North 4.6 mph - N/A   Clear
2:15 AM 47.7 °F 47.7 °F 100% 30.09 in 5.0 mi North 4.6 mph - N/A   Clear
2:35 AM 47.3 °F 47.3 °F 100% 30.09 in 5.0 mi NNE 4.6 mph - N/A   Clear
2:55 AM 46.9 °F 46.9 °F 100% 30.09 in 5.0 mi NNE 4.6 mph - N/A   Clear
3:15 AM 46.6 °F 46.6 °F 100% 30.08 in 5.0 mi North 5.8 mph - N/A   Clear
3:35 AM 46.6 °F 46.6 °F 100% 30.07 in 5.0 mi NNE 6.9 mph - N/A   Clear
4:15 AM 47.5 °F 47.5 °F 100% 30.07 in 5.0 mi NNE 8.1 mph - N/A   Clear
4:35 AM 48.0 °F 48.0 °F 100% 30.07 in 5.0 mi NNE 6.9 mph - N/A   Clear
4:55 AM 48.4 °F 48.4 °F 100% 30.07 in 5.0 mi NE 8.1 mph - N/A   Scattered Clouds
5:15 AM 48.4 °F 48.4 °F 100% 30.06 in 5.0 mi NNE 8.1 mph - N/A   Mostly Cloudy
5:35 AM 48.6 °F 48.6 °F 100% 30.06 in 5.0 mi NE 8.1 mph - N/A   Scattered Clouds
5:55 AM 48.6 °F 48.6 °F 100% 30.07 in 7.0 mi NE 8.1 mph - N/A   Scattered Clouds
6:15 AM 48.7 °F 48.7 °F 100% 30.07 in 5.0 mi NE 8.1 mph - N/A   Clear
6:35 AM 49.1 °F 49.1 °F 100% 30.08 in 5.0 mi NE 8.1 mph - N/A   Clear
6:55 AM 49.3 °F 49.3 °F 100% 30.08 in 5.0 mi NNE 9.2 mph - N/A   Clear
7:15 AM 50.0 °F 50.0 °F 100% 30.09 in 5.0 mi NE 9.2 mph - N/A   Clear
7:35 AM 51.3 °F 50.9 °F 99% 30.09 in 5.0 mi NE 8.1 mph - N/A   Clear
7:55 AM 52.5 °F 51.8 °F 97% 30.10 in 7.0 mi NE 5.8 mph - N/A   Clear
8:15 AM 53.6 °F 52.5 °F 96% 30.10 in 7.0 mi NE 9.2 mph - N/A   Scattered Clouds
8:35 AM 54.9 °F 53.8 °F 96% 30.10 in 7.0 mi NE 9.2 mph - N/A   Mostly Cloudy
8:55 AM 56.3 °F 54.7 °F 94% 30.10 in 7.0 mi ENE 9.2 mph - N/A   Mostly Cloudy
9:15 AM 57.9 °F 56.1 °F 94% 30.10 in 10.0 mi ENE 12.7 mph 17.3 mph N/A   Overcast
9:35 AM 59.0 °F 56.7 °F 92% 30.11 in 10.0 mi ENE 11.5 mph 16.1 mph N/A   Overcast
10:15 AM 61.0 °F 55.9 °F 83% 30.10 in 10.0 mi NE 10.4 mph 18.4 mph N/A   Mostly Cloudy
10:35 AM 61.3 °F 55.0 °F 80% 30.11 in 7.0 mi ENE 9.2 mph 18.4 mph N/A   Overcast
10:55 AM 62.1 °F 55.2 °F 78% 30.10 in 7.0 mi ENE 9.2 mph 21.9 mph N/A   Overcast
11:15 AM 62.4 °F 55.0 °F 77% 30.11 in 10.0 mi ENE 15.0 mph 18.4 mph N/A   Overcast
11:35 AM 61.0 °F 54.7 °F 80% 30.11 in 10.0 mi East 13.8 mph 19.6 mph N/A   Overcast
11:55 AM 59.5 °F 57.2 °F 92% 30.11 in 4.0 mi ENE 10.4 mph - N/A   Overcast
12:15 PM 60.3 °F 58.1 °F 93% 30.10 in 3.0 mi East 11.5 mph 18.4 mph N/A   Overcast
12:35 PM 60.4 °F 58.6 °F 94% 30.10 in 4.0 mi ENE 9.2 mph 16.1 mph N/A   Overcast
12:55 PM 59.9 °F 59.0 °F 97% 30.10 in 3.0 mi ENE 10.4 mph 17.3 mph N/A   Light Drizzle
1:15 PM 60.4 °F 59.9 °F 98% 30.10 in 3.0 mi ENE 8.1 mph 18.4 mph 0.01 in Rain Light Rain
1:35 PM 60.8 °F 59.5 °F 96% 30.10 in 7.0 mi ENE 13.8 mph 18.4 mph 0.01 in   Mostly Cloudy
1:55 PM 61.2 °F 58.3 °F 90% 30.10 in 7.0 mi ENE 13.8 mph 18.4 mph 0.01 in   Overcast
2:15 PM 60.8 °F 57.7 °F 90% 30.10 in 7.0 mi ENE 8.1 mph 17.3 mph N/A   Overcast
2:35 PM 61.2 °F 57.4 °F 87% 30.10 in 7.0 mi ENE 12.7 mph 18.4 mph N/A   Overcast
2:55 PM 63.1 °F 57.6 °F 82% 30.09 in 10.0 mi East 11.5 mph 20.7 mph N/A   Mostly Cloudy
3:15 PM 64.0 °F 57.0 °F 78% 30.09 in 10.0 mi ENE 15.0 mph 21.9 mph N/A   Mostly Cloudy
3:35 PM 63.5 °F 56.1 °F 77% 30.08 in 10.0 mi East 10.4 mph 19.6 mph N/A   Overcast
3:55 PM 62.4 °F 55.6 °F 78% 30.08 in 10.0 mi ENE 11.5 mph - N/A   Overcast
4:15 PM 61.5 °F 55.4 °F 80% 30.08 in 7.0 mi ENE 10.4 mph 17.3 mph N/A   Overcast
4:35 PM 61.7 °F 56.1 °F 82% 30.08 in 7.0 mi ENE 9.2 mph - N/A   Overcast
4:55 PM 59.7 °F 57.6 °F 93% 30.08 in 3.0 mi East 6.9 mph - N/A Rain Rain
5:15 PM 59.9 °F 58.3 °F 94% 30.08 in 5.0 mi ENE 8.1 mph - 0.01 in   Light Drizzle
5:35 PM 59.9 °F 57.7 °F 93% 30.08 in 7.0 mi ENE 8.1 mph - 0.01 in   Overcast
5:55 PM 59.9 °F 57.6 °F 92% 30.08 in 7.0 mi ENE 6.9 mph - 0.01 in   Overcast
6:15 PM 58.6 °F 57.2 °F 95% 30.08 in 3.0 mi ENE 10.4 mph - 0.01 in Rain Heavy Rain
6:55 PM 58.1 °F 57.7 °F 99% 30.07 in 5.0 mi ENE 11.5 mph 16.1 mph 0.01 in   Overcast
7:15 PM 57.6 °F 57.6 °F 100% 30.07 in 4.0 mi ENE 13.8 mph 18.4 mph N/A   Overcast
7:35 PM 57.2 °F 57.2 °F 100% 30.07 in 3.0 mi ENE 12.7 mph 19.6 mph N/A   Overcast
7:55 PM 56.8 °F 56.8 °F 100% 30.06 in 4.0 mi NE 11.5 mph - N/A   Overcast
8:15 PM 56.7 °F 56.7 °F 100% 30.06 in 7.0 mi ENE 12.7 mph 18.4 mph N/A   Overcast
8:35 PM 56.7 °F 56.7 °F 100% 30.06 in 7.0 mi ENE 10.4 mph - N/A   Overcast
8:55 PM 56.7 °F 56.7 °F 100% 30.07 in 7.0 mi ENE 10.4 mph - N/A   Overcast
9:15 PM 56.7 °F 56.7 °F 100% 30.07 in 7.0 mi NE 8.1 mph - N/A   Overcast
9:35 PM 56.7 °F 56.7 °F 100% 30.07 in 7.0 mi ENE 8.1 mph - N/A   Overcast
9:55 PM 56.8 °F 56.8 °F 100% 30.07 in 7.0 mi NE 8.1 mph - N/A   Overcast
10:15 PM 56.8 °F 56.8 °F 100% 30.07 in 7.0 mi ENE 8.1 mph - N/A   Overcast
10:55 PM 56.8 °F 56.8 °F 100% 30.07 in 7.0 mi ENE 8.1 mph - N/A   Overcast
11:15 PM 57.2 °F 57.2 °F 100% 30.06 in 7.0 mi ENE 8.1 mph - N/A   Overcast
11:35 PM 57.2 °F 57.2 °F 100% 30.06 in 7.0 mi NE 9.2 mph - N/A   Overcast
11:55 PM 57.2 °F 57.2 °F 100% 30.06 in 5.0 mi NE 6.9 mph - N/A   Overcast